| time (UTC) | temp C | wind direction | speed KPH | gust KPH | rain 1hr cm | rain 24hr cm | rain mn cm | humidity % | barometer mb |
| 20260504050540 | 21 | 159 | 3.2 | 11.3 | 0.00 | 0.00 | 0.00 | 68 | 1017.8 |
| 20260504045539 | 20 | 128 | 3.2 | 8.0 | 0.00 | 0.00 | 0.00 | 68 | 1018.1 |
| 20260504045039 | 20 | 159 | 3.2 | 9.7 | 0.00 | 0.00 | 0.00 | 68 | 1018.1 |
| 20260504044546 | 20 | 144 | 3.2 | 8.0 | 0.00 | 0.00 | 0.00 | 68 | 1018.2 |
| 20260504044039 | 21 | 130 | 1.6 | 6.4 | 0.00 | 0.00 | 0.00 | 68 | 1018.3 |
| 20260504043539 | 21 | 145 | 1.6 | 6.4 | 0.00 | 0.00 | 0.00 | 68 | 1018.3 |
| 20260504043040 | 21 | 121 | 1.6 | 6.4 | 0.00 | 0.00 | 0.00 | 67 | 1018.4 |
| 20260504042538 | 21 | 154 | 3.2 | 8.0 | 0.00 | 0.00 | 0.00 | 67 | 1018.3 |
| 20260504042040 | 21 | 172 | 0.0 | 6.4 | 0.00 | 0.00 | 0.00 | 67 | 1018.3 |
| 20260504041539 | 21 | 139 | 1.6 | 9.7 | 0.00 | 0.00 | 0.00 | 66 | 1018.3 |
| 20260504041037 | 21 | 116 | 3.2 | 9.7 | 0.00 | 0.00 | 0.00 | 66 | 1018.3 |
| 20260504040538 | 21 | 124 | 3.2 | 11.3 | 0.00 | 0.00 | 0.00 | 66 | 1018.3 |
| 20260504040048 | 21 | 144 | 1.6 | 11.3 | 0.00 | 0.00 | 0.00 | 66 | 1018.3 |
| 20260504035540 | 21 | 157 | 3.2 | 9.7 | 0.00 | 0.00 | 0.00 | 66 | 1018.3 |
| 20260504035037 | 21 | 153 | 3.2 | 11.3 | 0.00 | 0.00 | 0.00 | 66 | 1018.4 |
| 20260504034637 | 21 | 139 | 3.2 | 11.3 | 0.00 | 0.00 | 0.00 | 65 | 1018.3 |
| 20260504034037 | 21 | 148 | 1.6 | 11.3 | 0.00 | 0.00 | 0.00 | 65 | 1018.2 |
| 20260504033537 | 21 | 122 | 4.8 | 11.3 | 0.00 | 0.00 | 0.00 | 65 | 1018.2 |
| 20260504033046 | 21 | 139 | 3.2 | 8.0 | 0.00 | 0.00 | 0.00 | 64 | 1018.2 |
| 20260504032537 | 21 | 132 | 1.6 | 11.3 | 0.00 | 0.00 | 0.00 | 64 | 1018.2 |
| 20260504032038 | 21 | 169 | 3.2 | 8.0 | 0.00 | 0.00 | 0.00 | 64 | 1018.2 |
| 20260504031536 | 21 | 151 | 1.6 | 8.0 | 0.00 | 0.00 | 0.00 | 64 | 1018.3 |
| 20260504031037 | 21 | 150 | 1.6 | 8.0 | 0.00 | 0.00 | 0.00 | 63 | 1018.1 |
| 20260504030535 | 21 | 152 | 3.2 | 8.0 | 0.00 | 0.00 | 0.00 | 63 | 1018.0 |
| 20260504030044 | 21 | 140 | 1.6 | 6.4 | 0.00 | 0.00 | 0.00 | 62 | 1018.0 |
| 20260504025536 | 21 | 141 | 3.2 | 6.4 | 0.00 | 0.00 | 0.00 | 62 | 1018.1 |
| 20260504025036 | 21 | 144 | 1.6 | 6.4 | 0.00 | 0.00 | 0.00 | 62 | 1018.2 |
| 20260504024537 | 21 | 144 | 3.2 | 6.4 | 0.00 | 0.00 | 0.00 | 62 | 1018.2 |
| 20260504024035 | 21 | 128 | 3.2 | 9.7 | 0.00 | 0.00 | 0.00 | 61 | 1018.1 |
| 20260504023535 | 21 | 167 | 4.8 | 9.7 | 0.00 | 0.00 | 0.00 | 61 | 1018.1 |
| 20260504023040 | 21 | 133 | 1.6 | 11.3 | 0.00 | 0.00 | 0.00 | 61 | 1018.1 |
| 20260504022535 | 21 | 135 | 4.8 | 11.3 | 0.00 | 0.00 | 0.00 | 61 | 1018.0 |
| 20260504022035 | 21 | 169 | 4.8 | 11.3 | 0.00 | 0.00 | 0.00 | 61 | 1017.9 |
| 20260504021535 | 21 | 129 | 3.2 | 8.0 | 0.00 | 0.00 | 0.00 | 60 | 1017.9 |
| 20260504021033 | 21 | 131 | 3.2 | 12.9 | 0.00 | 0.00 | 0.00 | 60 | 1017.9 |
| 20260504020533 | 21 | 150 | 3.2 | 11.3 | 0.00 | 0.00 | 0.00 | 60 | 1017.8 |
| 20260504020037 | 21 | 168 | 4.8 | 11.3 | 0.00 | 0.00 | 0.00 | 60 | 1017.7 |
| 20260504015533 | 22 | 166 | 3.2 | 14.5 | 0.00 | 0.00 | 0.00 | 59 | 1017.7 |
| 20260504015038 | 22 | 164 | 6.4 | 14.5 | 0.00 | 0.00 | 0.00 | 59 | 1017.6 |
| 20260504014541 | 22 | 113 | 3.2 | 14.5 | 0.00 | 0.00 | 0.00 | 59 | 1017.7 |
| 20260504014033 | 22 | 129 | 4.8 | 16.1 | 0.00 | 0.00 | 0.00 | 59 | 1017.5 |
| 20260504013533 | 22 | 129 | 6.4 | 19.3 | 0.00 | 0.00 | 0.00 | 59 | 1017.6 |
| 20260504013038 | 22 | 132 | 4.8 | 14.5 | 0.00 | 0.00 | 0.00 | 59 | 1017.7 |
| 20260504012533 | 22 | 130 | 6.4 | 19.3 | 0.00 | 0.00 | 0.00 | 59 | 1017.6 |
| 20260504012035 | 22 | 124 | 8.0 | 17.7 | 0.00 | 0.00 | 0.00 | 59 | 1017.6 |
| 20260504011532 | 22 | 163 | 8.0 | 14.5 | 0.00 | 0.00 | 0.00 | 59 | 1017.5 |
| 20260504011031 | 22 | 123 | 4.8 | 19.3 | 0.00 | 0.00 | 0.00 | 59 | 1017.5 |
| 20260504010531 | 22 | 138 | 8.0 | 20.9 | 0.00 | 0.00 | 0.00 | 58 | 1017.6 |
| 20260504010031 | 22 | 148 | 11.3 | 20.9 | 0.00 | 0.00 | 0.00 | 58 | 1017.5 |
| 20260504005531 | 22 | 122 | 4.8 | 16.1 | 0.00 | 0.00 | 0.00 | 58 | 1017.6 |
| 20260504005030 | 22 | 161 | 6.4 | 16.1 | 0.00 | 0.00 | 0.00 | 58 | 1017.6 |
| 20260504004533 | 22 | 126 | 8.0 | 17.7 | 0.00 | 0.00 | 0.00 | 57 | 1017.6 |
| 20260504004030 | 23 | 121 | 9.7 | 17.7 | 0.00 | 0.00 | 0.00 | 56 | 1017.6 |
| 20260504003530 | 23 | 138 | 6.4 | 14.5 | 0.00 | 0.00 | 0.00 | 56 | 1017.6 |
| 20260504003034 | 23 | 139 | 4.8 | 19.3 | 0.00 | 0.00 | 0.00 | 56 | 1017.8 |
| 20260504002529 | 23 | 160 | 8.0 | 19.3 | 0.00 | 0.00 | 0.00 | 56 | 1017.8 |
| 20260504002029 | 23 | 126 | 9.7 | 19.3 | 0.00 | 0.00 | 0.00 | 56 | 1017.9 |
| 20260504001529 | 23 | 132 | 9.7 | 19.3 | 0.00 | 0.00 | 0.00 | 56 | 1017.8 |
| 20260504001030 | 23 | 134 | 14.5 | 19.3 | 0.00 | 0.00 | 0.00 | 55 | 1017.8 |
| 20260504000529 | 23 | 128 | 8.0 | 19.3 | 0.00 | 0.00 | 0.00 | 55 | 1017.8 |
| 20260504000029 | 23 | 176 | 6.4 | 17.7 | 0.00 | 0.00 | 0.00 | 55 | 1017.8 |
| 20260503235528 | 23 | 133 | 8.0 | 17.7 | 0.00 | 0.00 | 0.00 | 54 | 1017.8 |
| 20260503235028 | 23 | 171 | 8.0 | 19.3 | 0.00 | 0.00 | 0.00 | 54 | 1017.7 |
| 20260503234538 | 23 | 80 | 11.3 | 24.1 | 0.00 | 0.00 | 0.00 | 55 | 1017.6 |
| 20260503234029 | 24 | 130 | 12.9 | 24.1 | 0.00 | 0.00 | 0.00 | 54 | 1017.6 |
| 20260503233529 | 24 | 108 | 9.7 | 20.9 | 0.00 | 0.00 | 0.00 | 54 | 1017.8 |
| 20260503233027 | 24 | 90 | 9.7 | 19.3 | 0.00 | 0.00 | 0.00 | 53 | 1017.8 |
| 20260503232526 | 24 | 189 | 8.0 | 19.3 | 0.00 | 0.00 | 0.00 | 53 | 1017.9 |
| 20260503232025 | 24 | 173 | 9.7 | 17.7 | 0.00 | 0.00 | 0.00 | 54 | 1017.9 |
| 20260503231525 | 24 | 185 | 8.0 | 20.9 | 0.00 | 0.00 | 0.00 | 54 | 1018.0 |
| 20260503231024 | 24 | 165 | 11.3 | 20.9 | 0.00 | 0.00 | 0.00 | 54 | 1017.9 |
| 20260503230524 | 24 | 105 | 9.7 | 25.7 | 0.00 | 0.00 | 0.00 | 54 | 1018.1 |
| 20260503230024 | 24 | 135 | 11.3 | 24.1 | 0.00 | 0.00 | 0.00 | 54 | 1018.0 |
| 20260503225525 | 24 | 121 | 11.3 | 22.5 | 0.00 | 0.00 | 0.00 | 53 | 1018.0 |
| 20260503225022 | 25 | 120 | 11.3 | 20.9 | 0.00 | 0.00 | 0.00 | 53 | 1018.0 |
| 20260503224522 | 24 | 163 | 11.3 | 20.9 | 0.00 | 0.00 | 0.00 | 53 | 1018.2 |
| 20260503224022 | 25 | 175 | 11.3 | 27.4 | 0.00 | 0.00 | 0.00 | 53 | 1018.3 |
| 20260503223521 | 25 | 119 | 14.5 | 27.4 | 0.00 | 0.00 | 0.00 | 52 | 1018.3 |
| 20260503223023 | 25 | 142 | 11.3 | 20.9 | 0.00 | 0.00 | 0.00 | 52 | 1018.2 |
| 20260503222521 | 26 | 116 | 9.7 | 20.9 | 0.00 | 0.00 | 0.00 | 51 | 1018.2 |
| 20260503222020 | 25 | 163 | 4.8 | 19.3 | 0.00 | 0.00 | 0.00 | 52 | 1018.3 |
| 20260503221520 | 25 | 70 | 8.0 | 22.5 | 0.00 | 0.00 | 0.00 | 52 | 1018.3 |
| 20260503221020 | 25 | 111 | 12.9 | 22.5 | 0.00 | 0.00 | 0.00 | 52 | 1018.3 |
| 20260503220521 | 25 | 139 | 9.7 | 24.1 | 0.00 | 0.00 | 0.00 | 53 | 1018.3 |
| 20260503220019 | 25 | 82 | 12.9 | 22.5 | 0.00 | 0.00 | 0.00 | 51 | 1018.4 |
| 20260503215518 | 25 | 155 | 9.7 | 20.9 | 0.00 | 0.00 | 0.00 | 52 | 1018.6 |
| 20260503215117 | 25 | 171 | 9.7 | 17.7 | 0.00 | 0.00 | 0.00 | 50 | 1018.7 |
| 20260503214517 | 25 | 98 | 8.0 | 27.4 | 0.00 | 0.00 | 0.00 | 50 | 1018.8 |
| 20260503214021 | 26 | 134 | 11.3 | 27.4 | 0.00 | 0.00 | 0.00 | 49 | 1018.9 |
| 20260503213515 | 25 | 199 | 8.0 | 20.9 | 0.00 | 0.00 | 0.00 | 49 | 1019.0 |
| 20260503213015 | 25 | 121 | 9.7 | 22.5 | 0.00 | 0.00 | 0.00 | 49 | 1019.1 |
| 20260503212515 | 25 | 117 | 12.9 | 22.5 | 0.00 | 0.00 | 0.00 | 49 | 1019.2 |
| 20260503212015 | 25 | 126 | 9.7 | 24.1 | 0.00 | 0.00 | 0.00 | 50 | 1019.3 |
| 20260503211513 | 25 | 132 | 12.9 | 24.1 | 0.00 | 0.00 | 0.00 | 50 | 1019.4 |
| 20260503211013 | 25 | 94 | 16.1 | 24.1 | 0.00 | 0.00 | 0.00 | 48 | 1019.5 |
| 20260503210517 | 25 | 103 | 12.9 | 22.5 | 0.00 | 0.00 | 0.00 | 48 | 1019.4 |
| 20260503210012 | 25 | 94 | 11.3 | 22.5 | 0.00 | 0.00 | 0.00 | 48 | 1019.4 |
| 20260503205512 | 26 | 94 | 11.3 | 22.5 | 0.00 | 0.00 | 0.00 | 48 | 1019.5 |
| 20260503205011 | 26 | 88 | 8.0 | 22.5 | 0.00 | 0.00 | 0.00 | 46 | 1019.6 |
| 20260503204511 | 26 | 124 | 4.8 | 24.1 | 0.00 | 0.00 | 0.00 | 48 | 1019.6 |
| 20260503204010 | 26 | 147 | 11.3 | 24.1 | 0.00 | 0.00 | 0.00 | 47 | 1019.7 |
| 20260503203511 | 26 | 144 | 11.3 | 24.1 | 0.00 | 0.00 | 0.00 | 47 | 1019.7 |
| 20260503203014 | 25 | 178 | 11.3 | 24.1 | 0.00 | 0.00 | 0.00 | 46 | 1019.7 |
| 20260503202509 | 26 | 107 | 11.3 | 22.5 | 0.00 | 0.00 | 0.00 | 46 | 1019.8 |
| 20260503202009 | 26 | 85 | 6.4 | 19.3 | 0.00 | 0.00 | 0.00 | 47 | 1020.0 |
| 20260503201507 | 26 | 167 | 8.0 | 22.5 | 0.00 | 0.00 | 0.00 | 46 | 1020.2 |
| 20260503201007 | 26 | 149 | 9.7 | 22.5 | 0.00 | 0.00 | 0.00 | 46 | 1020.2 |
| 20260503200505 | 26 | 119 | 4.8 | 25.7 | 0.00 | 0.00 | 0.00 | 46 | 1020.3 |
| 20260503200006 | 26 | 112 | 9.7 | 25.7 | 0.00 | 0.00 | 0.00 | 47 | 1020.4 |
| 20260503195506 | 26 | 107 | 11.3 | 19.3 | 0.00 | 0.00 | 0.00 | 46 | 1020.6 |
| 20260503195006 | 25 | 94 | 12.9 | 20.9 | 0.00 | 0.00 | 0.00 | 47 | 1020.6 |
| 20260503194504 | 25 | 48 | 9.7 | 20.9 | 0.00 | 0.00 | 0.00 | 46 | 1020.7 |
| 20260503194004 | 25 | 110 | 12.9 | 24.1 | 0.00 | 0.00 | 0.00 | 46 | 1020.9 |
| 20260503193504 | 25 | 130 | 11.3 | 25.7 | 0.00 | 0.00 | 0.00 | 46 | 1020.9 |
| 20260503193003 | 26 | 136 | 8.0 | 24.1 | 0.00 | 0.00 | 0.00 | 45 | 1020.7 |
| 20260503192504 | 26 | 159 | 11.3 | 20.9 | 0.00 | 0.00 | 0.00 | 45 | 1020.8 |
| 20260503192005 | 26 | 69 | 12.9 | 24.1 | 0.00 | 0.00 | 0.00 | 46 | 1021.0 |
| 20260503191502 | 26 | 51 | 9.7 | 22.5 | 0.00 | 0.00 | 0.00 | 46 | 1021.0 |
| 20260503191003 | 25 | 125 | 11.3 | 22.5 | 0.00 | 0.00 | 0.00 | 46 | 1021.0 |
| 20260503190503 | 25 | 124 | 12.9 | 24.1 | 0.00 | 0.00 | 0.00 | 47 | 1021.0 |
| 20260503190001 | 25 | 158 | 4.8 | 25.7 | 0.00 | 0.00 | 0.00 | 46 | 1021.1 |
| 20260503185601 | 26 | 131 | 8.0 | 27.4 | 0.00 | 0.00 | 0.00 | 46 | 1021.2 |
| 20260503185100 | 25 | 111 | 12.9 | 25.7 | 0.00 | 0.00 | 0.00 | 46 | 1021.3 |
| 20260503184601 | 25 | 112 | 8.0 | 24.1 | 0.00 | 0.00 | 0.00 | 46 | 1021.4 |
| 20260503184104 | 25 | 98 | 11.3 | 24.1 | 0.00 | 0.00 | 0.00 | 47 | 1021.5 |
| 20260503183559 | 25 | 86 | 11.3 | 24.1 | 0.00 | 0.00 | 0.00 | 46 | 1021.5 |
| 20260503183115 | 25 | 129 | 12.9 | 27.4 | 0.00 | 0.00 | 0.00 | 46 | 1021.6 |
| 20260503182559 | 25 | 75 | 11.3 | 22.5 | 0.00 | 0.00 | 0.00 | 46 | 1021.7 |
| 20260503182058 | 25 | 101 | 11.3 | 24.1 | 0.00 | 0.00 | 0.00 | 45 | 1021.7 |
| 20260503181601 | 25 | 63 | 11.3 | 20.9 | 0.00 | 0.00 | 0.00 | 47 | 1021.8 |
| 20260503181058 | 25 | 117 | 14.5 | 24.1 | 0.00 | 0.00 | 0.00 | 47 | 1022.0 |
| 20260503180559 | 25 | 34 | 12.9 | 24.1 | 0.00 | 0.00 | 0.00 | 48 | 1022.1 |
| 20260503180058 | 25 | 107 | 14.5 | 22.5 | 0.00 | 0.00 | 0.00 | 47 | 1022.1 |
| 20260503175557 | 25 | 79 | 11.3 | 22.5 | 0.00 | 0.00 | 0.00 | 51 | 1022.1 |
| 20260503175056 | 25 | 118 | 8.0 | 27.4 | 0.00 | 0.00 | 0.00 | 53 | 1022.3 |
| 20260503174557 | 25 | 38 | 16.1 | 27.4 | 0.00 | 0.00 | 0.00 | 53 | 1022.3 |
| 20260503174056 | 25 | 128 | 8.0 | 20.9 | 0.00 | 0.00 | 0.00 | 52 | 1022.3 |
| 20260503173556 | 25 | 90 | 9.7 | 22.5 | 0.00 | 0.00 | 0.00 | 53 | 1022.4 |
| 20260503173117 | 25 | 69 | 12.9 | 32.2 | 0.00 | 0.00 | 0.00 | 52 | 1022.4 |
| 20260503172559 | 25 | 84 | 16.1 | 32.2 | 0.00 | 0.00 | 0.00 | 51 | 1022.3 |
| 20260503172054 | 25 | 73 | 9.7 | 20.9 | 0.00 | 0.00 | 0.00 | 50 | 1022.4 |
| 20260503171553 | 25 | 55 | 9.7 | 25.7 | 0.00 | 0.00 | 0.00 | 51 | 1022.5 |
| 20260503171053 | 25 | 93 | 11.3 | 25.7 | 0.00 | 0.00 | 0.00 | 50 | 1022.5 |
| 20260503170552 | 25 | 123 | 6.4 | 19.3 | 0.00 | 0.00 | 0.00 | 50 | 1022.6 |
| 20260503170153 | 25 | 103 | 9.7 | 20.9 | 0.00 | 0.00 | 0.00 | 50 | 1022.5 |
| 20260503150538 | 23 | 38 | 4.8 | 16.1 | 0.00 | 0.00 | 0.00 | 54 | 1022.8 |
| 20260503131014 | 18 | 348 | 3.2 | 8.0 | 0.00 | 0.00 | 0.00 | 73 | 1021.9 |
| 20260503130513 | 18 | 10 | 3.2 | 6.4 | 0.00 | 0.00 | 0.00 | 74 | 1021.7 |
| 20260503110502 | 15 | 34 | 1.6 | 3.2 | 0.00 | 0.00 | 0.00 | 79 | 1021.0 |
| 20260503100106 | 15 | 36 | 0.0 | 3.2 | 0.00 | 0.00 | 0.00 | 79 | 1021.0 |
| 20260503081548 | 15 | 45 | 0.0 | 3.2 | 0.00 | 0.00 | 0.00 | 78 | 1021.1 |
| 20260503081047 | 15 | 45 | 0.0 | 0.0 | 0.00 | 0.00 | 0.00 | 77 | 1021.2 |
| 20260503080550 | 15 | 45 | 0.0 | 0.0 | 0.00 | 0.00 | 0.00 | 77 | 1021.2 |
| 20260503072542 | 16 | 45 | 0.0 | 0.0 | 0.00 | 0.00 | 0.00 | 74 | 1021.1 |
| 20260503072041 | 16 | 45 | 0.0 | 0.0 | 0.00 | 0.00 | 0.00 | 74 | 1021.2 |
| 20260503071542 | 16 | 45 | 0.0 | 0.0 | 0.00 | 0.00 | 0.00 | 73 | 1021.3 |
| 20260503071039 | 16 | 45 | 0.0 | 0.0 | 0.00 | 0.00 | 0.00 | 73 | 1021.3 |
| 20260503070538 | 16 | 45 | 0.0 | 0.0 | 0.00 | 0.00 | 0.00 | 72 | 1021.4 |